Santa Monica, CA

1:49 AM PST on December 17, 2017 (GMT -0800)
Santa Monica Municipal

Weather History for KSMO - November, 2012

Change the Weather History Date:

Wednesday, November 7, 2012

  Actual Average Record
Temperature  
Mean Temperature 64 °F -  
Max Temperature 66 °F 70 °F 94 °F (1956)
Min Temperature 61 °F 54 °F 37 °F (1935)
Degree Days  
Heating Degree Days 2    
Growing Degree Days 14 (Base 50)    
Moisture  
Dew Point 54 °F    
Average Humidity 74    
Maximum Humidity 81    
Minimum Humidity 63    
Precipitation  
Precipitation 0.00 in - - ()
Sea Level Pressure  
Sea Level Pressure 30.02 in    
Wind  
Wind Speed 2 mph (SW)    
Max Wind Speed 9 mph    
Max Gust Speed -    
Visibility 7 miles    
Events      
Averages and records for this station are not official NWS values.
T = Trace of Precipitation, MM = Missing Value Source: NWS Daily Summary

Daily Weather History Graph

Daily Weather History Graph

Search for Another Location

Airport or City:

Trip Planner

Search our weather history database for the weather conditions in past years. The results will help you decide how hot, cold, wet, or windy it might be!

Date:

Astronomy

Nov. 07, 2012 Rise Set
Actual Time 6:19 AM PST 4:55 PM PST
Civil Twilight 5:53 AM PST 5:21 PM PST
Nautical Twilight 5:23 AM PST 5:51 PM PST
Astronomical Twilight 4:53 AM PST 6:20 PM PST
Moon No Moon Rise 12:50 PM PST (11/7)
Length of Visible Light 11h 28m
Length of Day
10h 35m
Last Quarter, 42% of the Moon is Illuminated
Nov 7
Last Quarter
Nov 13
New
Nov 20
First Quarter
Nov 28
Full
Dec 6
Last Quarter

Hourly Weather History & Observations

Time (PST) Temp. Dew Point Humidity Pressure Visibility Wind Dir Wind Speed Gust Speed Precip Events Conditions
12:51 AM 63.0 °F 57.0 °F 81% 30.05 in 7.0 mi Calm Calm - N/A   Overcast
1:51 AM 63.0 °F 55.9 °F 78% 30.05 in 6.0 mi Calm Calm - N/A   Haze
2:51 AM 62.1 °F 55.0 °F 78% 30.04 in 7.0 mi Calm Calm - N/A   Overcast
3:51 AM 62.1 °F 55.0 °F 78% 30.03 in 6.0 mi Calm Calm - N/A   Haze
4:17 AM 62.6 °F 55.4 °F 77% 30.04 in 5.0 mi Calm Calm - N/A   Haze
4:51 AM 62.1 °F 55.0 °F 78% 30.04 in 4.0 mi NE 3.5 mph - N/A   Haze
5:51 AM 62.1 °F 55.0 °F 78% 30.05 in 4.0 mi Calm Calm - N/A   Haze
6:51 AM 61.0 °F 54.0 °F 78% 30.06 in 3.0 mi Calm Calm - N/A   Haze
7:28 AM 62.6 °F 53.6 °F 72% 30.07 in 2.5 mi Calm Calm - N/A   Haze
7:36 AM 62.6 °F 53.6 °F 72% 30.07 in 3.0 mi Calm Calm - N/A   Haze
7:51 AM 62.1 °F 54.0 °F 75% 30.08 in 3.0 mi SW 3.5 mph - N/A   Haze
8:51 AM 63.0 °F 54.0 °F 72% 30.08 in 3.0 mi Calm Calm - N/A   Haze
9:51 AM 64.0 °F 54.0 °F 70% 30.07 in 4.0 mi Calm Calm - N/A   Haze
10:51 AM 64.9 °F 54.0 °F 68% 30.06 in 4.0 mi SW 6.9 mph - N/A   Haze
11:51 AM 66.0 °F 53.1 °F 63% 30.04 in 7.0 mi SW 6.9 mph - N/A   Clear
12:51 PM 66.0 °F 54.0 °F 65% 30.01 in 8.0 mi WSW 5.8 mph - N/A   Partly Cloudy
1:51 PM 66.0 °F 54.0 °F 65% 29.99 in 10.0 mi Variable 5.8 mph - N/A   Partly Cloudy
3:51 PM 64.0 °F 54.0 °F 70% 29.97 in 10.0 mi WSW 9.2 mph - N/A   Scattered Clouds
4:51 PM 63.0 °F 54.0 °F 72% 29.96 in 10.0 mi WSW 6.9 mph - N/A   Scattered Clouds
4:58 PM 62.6 °F 53.6 °F 72% 29.97 in 10.0 mi WSW 4.6 mph - N/A   Mostly Cloudy
5:51 PM 62.1 °F 55.0 °F 78% 29.97 in 10.0 mi WSW 8.1 mph - N/A   Overcast
6:51 PM 62.1 °F 55.0 °F 78% 29.98 in 10.0 mi SW 5.8 mph - N/A   Overcast
7:51 PM 62.1 °F 55.0 °F 78% 29.98 in 10.0 mi South 4.6 mph - N/A   Overcast
8:51 PM 62.1 °F 54.0 °F 75% 29.98 in 10.0 mi Calm Calm - N/A   Overcast
9:51 PM 62.1 °F 54.0 °F 75% 29.99 in 10.0 mi SSW 4.6 mph - N/A   Mostly Cloudy
10:51 PM 62.1 °F 54.0 °F 75% 29.99 in 10.0 mi SW 5.8 mph - N/A   Overcast
11:40 PM 62.6 °F 53.6 °F 72% 29.98 in 10.0 mi WSW 3.5 mph - N/A   Overcast
11:51 PM 62.1 °F 54.0 °F 75% 29.97 in 10.0 mi WSW 3.5 mph - N/A   Overcast